TimeCST,TemperatureF,Dew PointF,Humidity,Sea Level PressureIn,VisibilityMPH,Wind Direction,Wind SpeedMPH,Gust SpeedMPH,PrecipitationIn,Events,Conditions,WindDirDegrees,DateUTC
12:15 AM,12.2,-0.0,58,30.38,10.0,West,3.5,-,N/A,,Clear,270,2013-01-22 06:15:00
12:35 AM,12.0,0.1,59,30.38,10.0,West,3.5,-,N/A,,Clear,280,2013-01-22 06:35:00
1:55 AM,11.3,0.5,62,30.39,10.0,WNW,3.5,-,N/A,,Clear,290,2013-01-22 07:55:00
2:15 AM,11.3,1.0,63,30.38,10.0,WNW,3.5,-,N/A,,Clear,290,2013-01-22 08:15:00
2:35 AM,11.3,2.1,67,30.38,10.0,NNW,9.2,-,N/A,,Clear,330,2013-01-22 08:35:00
2:55 AM,12.2,1.4,62,30.39,10.0,NNW,11.5,-,N/A,,Clear,340,2013-01-22 08:55:00
3:15 AM,11.5,1.2,63,30.38,10.0,NNW,8.1,-,N/A,,Scattered Clouds,330,2013-01-22 09:15:00
3:35 AM,11.1,1.0,64,30.38,10.0,NNW,10.4,-,N/A,,Clear,330,2013-01-22 09:35:00
3:55 AM,10.4,1.2,66,30.39,10.0,NNW,10.4,-,N/A,,Scattered Clouds,330,2013-01-22 09:55:00
4:15 AM,10.4,1.2,66,30.39,10.0,NW,8.1,-,N/A,,Scattered Clouds,320,2013-01-22 10:15:00
4:35 AM,9.7,1.4,69,30.40,10.0,NNW,9.2,-,N/A,,Scattered Clouds,330,2013-01-22 10:35:00
4:55 AM,9.5,1.4,70,30.40,10.0,NNW,8.1,-,N/A,,Scattered Clouds,330,2013-01-22 10:55:00
5:15 AM,9.0,1.2,71,30.41,10.0,NW,6.9,-,N/A,,Scattered Clouds,320,2013-01-22 11:15:00
5:35 AM,8.8,1.2,71,30.41,10.0,NNW,4.6,-,N/A,,Scattered Clouds,330,2013-01-22 11:35:00
5:55 AM,8.4,1.2,73,30.41,10.0,NW,4.6,-,N/A,,Scattered Clouds,320,2013-01-22 11:55:00
6:15 AM,8.6,1.4,73,30.41,10.0,NNW,5.8,-,N/A,,Clear,340,2013-01-22 12:15:00
6:35 AM,8.2,-0.8,67,30.41,10.0,NNW,5.8,-,N/A,,Clear,340,2013-01-22 12:35:00
6:55 AM,8.4,-0.6,67,30.41,10.0,NNW,3.5,-,N/A,,Mostly Cloudy,340,2013-01-22 12:55:00
7:15 AM,8.6,-2.4,61,30.43,10.0,NW,4.6,-,N/A,,Overcast,310,2013-01-22 13:15:00
7:35 AM,8.6,-2.4,61,30.43,10.0,NNW,6.9,-,N/A,,Mostly Cloudy,340,2013-01-22 13:35:00
7:55 AM,9.0,-2.2,61,30.43,10.0,NNW,5.8,-,N/A,,Mostly Cloudy,330,2013-01-22 13:55:00
8:15 AM,9.1,-2.4,60,30.44,10.0,NW,4.6,-,N/A,,Mostly Cloudy,310,2013-01-22 14:15:00
8:35 AM,9.1,-3.1,58,30.44,10.0,NW,5.8,-,N/A,,Scattered Clouds,310,2013-01-22 14:35:00
8:55 AM,9.5,-3.3,56,30.45,10.0,NW,5.8,-,N/A,,Scattered Clouds,310,2013-01-22 14:55:00
9:15 AM,9.9,-2.6,57,30.45,10.0,NW,5.8,-,N/A,,Mostly Cloudy,310,2013-01-22 15:15:00
9:35 AM,10.2,-1.7,59,30.46,10.0,NNW,3.5,-,N/A,,Mostly Cloudy,330,2013-01-22 15:35:00
9:55 AM,10.8,-2.0,56,30.47,10.0,WNW,4.6,-,N/A,,Mostly Cloudy,290,2013-01-22 15:55:00
10:15 AM,11.1,-2.2,55,30.48,10.0,Calm,Calm,-,N/A,,Scattered Clouds,0,2013-01-22 16:15:00
10:35 AM,11.7,-2.0,54,30.47,10.0,West,5.8,-,N/A,,Scattered Clouds,260,2013-01-22 16:35:00
10:55 AM,12.7,-1.5,53,30.48,10.0,West,4.6,-,N/A,,Scattered Clouds,260,2013-01-22 16:55:00
11:15 AM,12.7,-1.1,54,30.47,10.0,WNW,4.6,-,N/A,,Scattered Clouds,290,2013-01-22 17:15:00
11:35 AM,13.6,-1.8,50,30.46,10.0,West,8.1,-,N/A,,Scattered Clouds,270,2013-01-22 17:35:00
11:55 AM,13.8,-1.7,50,30.45,10.0,WSW,5.8,-,N/A,,Clear,250,2013-01-22 17:55:00
12:15 PM,14.4,-1.5,50,30.43,10.0,SW,5.8,-,N/A,,Clear,220,2013-01-22 18:15:00
12:35 PM,14.2,-1.8,49,30.43,10.0,WSW,6.9,-,N/A,,Mostly Cloudy,240,2013-01-22 18:35:00
12:55 PM,14.4,-1.7,49,30.41,10.0,West,8.1,-,N/A,,Mostly Cloudy,270,2013-01-22 18:55:00
1:15 PM,14.7,-1.3,49,30.41,10.0,West,8.1,-,N/A,,Overcast,280,2013-01-22 19:15:00
1:35 PM,15.1,-0.2,51,30.40,10.0,West,5.8,-,N/A,,Overcast,260,2013-01-22 19:35:00
1:55 PM,15.6,0.1,51,30.41,10.0,West,4.6,-,N/A,,Overcast,280,2013-01-22 19:55:00
2:15 PM,15.8,0.7,51,30.40,10.0,WSW,3.5,-,N/A,,Overcast,250,2013-01-22 20:15:00
2:35 PM,16.0,-0.2,49,30.39,10.0,West,5.8,-,N/A,,Overcast,280,2013-01-22 20:35:00
2:55 PM,16.3,0.3,49,30.39,10.0,West,3.5,-,N/A,,Overcast,270,2013-01-22 20:55:00
3:15 PM,16.9,0.9,50,30.38,10.0,NNW,4.6,-,N/A,,Overcast,330,2013-01-22 21:15:00
3:35 PM,16.7,1.0,50,30.37,10.0,Calm,Calm,-,N/A,,Overcast,0,2013-01-22 21:35:00
3:55 PM,16.7,1.4,51,30.37,10.0,Calm,Calm,-,N/A,,Mostly Cloudy,0,2013-01-22 21:55:00
4:15 PM,17.1,1.4,50,30.37,10.0,Calm,Calm,-,N/A,,Mostly Cloudy,0,2013-01-22 22:15:00
4:35 PM,17.2,1.9,51,30.37,10.0,West,3.5,-,N/A,,Overcast,270,2013-01-22 22:35:00
4:55 PM,17.2,1.8,51,30.37,10.0,Calm,Calm,-,N/A,,Overcast,0,2013-01-22 22:55:00
5:15 PM,17.1,1.6,51,30.37,10.0,Calm,Calm,-,N/A,,Overcast,0,2013-01-22 23:15:00
5:35 PM,17.1,1.9,52,30.36,10.0,Calm,Calm,-,N/A,,Overcast,0,2013-01-22 23:35:00
5:55 PM,17.1,2.1,52,30.37,10.0,Calm,Calm,-,N/A,,Overcast,0,2013-01-22 23:55:00
6:15 PM,17.1,1.9,52,30.37,10.0,Calm,Calm,-,N/A,,Overcast,0,2013-01-23 00:15:00
6:35 PM,17.2,2.1,52,30.36,10.0,Calm,Calm,-,N/A,,Overcast,0,2013-01-23 00:35:00
6:55 PM,17.2,2.5,52,30.36,10.0,Calm,Calm,-,N/A,,Overcast,0,2013-01-23 00:55:00
7:15 PM,17.1,2.5,53,30.37,10.0,Calm,Calm,-,N/A,,Overcast,0,2013-01-23 01:15:00
7:35 PM,17.4,3.9,56,30.37,10.0,Calm,Calm,-,N/A,,Overcast,0,2013-01-23 01:35:00
7:55 PM,17.6,4.3,56,30.38,10.0,Calm,Calm,-,N/A,,Overcast,0,2013-01-23 01:55:00
8:15 PM,17.6,4.8,57,30.38,10.0,Calm,Calm,-,N/A,,Overcast,0,2013-01-23 02:15:00
8:35 PM,17.6,4.6,57,30.38,10.0,Calm,Calm,-,N/A,,Overcast,0,2013-01-23 02:35:00
8:55 PM,17.6,7.5,65,30.37,10.0,Calm,Calm,-,N/A,,Overcast,0,2013-01-23 02:55:00
9:15 PM,17.4,7.0,64,30.37,10.0,Calm,Calm,-,N/A,,Overcast,0,2013-01-23 03:15:00
9:35 PM,17.4,7.5,65,30.38,10.0,Calm,Calm,-,N/A,,Overcast,0,2013-01-23 03:35:00
9:55 PM,17.4,6.8,63,30.38,10.0,Calm,Calm,-,N/A,,Overcast,0,2013-01-23 03:55:00
10:15 PM,17.6,7.5,65,30.37,10.0,South,3.5,-,N/A,,Overcast,190,2013-01-23 04:15:00
10:35 PM,17.1,7.3,66,30.38,10.0,Calm,Calm,-,N/A,,Mostly Cloudy,0,2013-01-23 04:35:00
10:55 PM,16.7,8.2,69,30.37,10.0,Calm,Calm,-,N/A,,Mostly Cloudy,0,2013-01-23 04:55:00
11:15 PM,16.5,8.6,71,30.37,10.0,Calm,Calm,-,N/A,,Mostly Cloudy,0,2013-01-23 05:15:00
11:35 PM,15.1,8.6,76,30.36,10.0,Calm,Calm,-,N/A,,Scattered Clouds,0,2013-01-23 05:35:00
11:55 PM,15.8,10.4,79,30.36,10.0,Calm,Calm,-,N/A,,Mostly Cloudy,0,2013-01-23 05:55:00